Location: Doverdale
(52.2833°N, 2.2000°W)
Time: 03:28:30
(UTC+00:00)

ATLAS 2AS CENTAUR R/B - Pass Details

Date: 29 October 2020
Orbit: 939 x 1273 km, 63.7° (Epoch: 23 November)

Event Time Altitude Azimuth Distance (km) Brightness Sun altitude
Rises 18:11:01 0° 309° (NW) 4,201 6.6 -13.7°
Reaches altitude 10° 18:13:59 10° 313° (NW) 3,202 5.8 -14.1°
Maximum altitude 18:21:33 55° 31° (NNE) 1,393 3.1 -15.3°
Enters shadow 18:26:17 22° 101° (E) 2,255 3.8 -16.0°
